Weather History for Topeka Forbes, KS

Change the Weather History Date:

Tuesday, March 5, 2013

  Actual Average Record
Temperature  
Mean Temperature 32 °F -  
Max Temperature 37 °F 49 °F 84 °F (1956)
Min Temperature 27 °F 27 °F -1 °F (1960)
Degree Days  
Heating Degree Days 33    
Moisture  
Dew Point 20 °F    
Average Humidity 60    
Maximum Humidity 82    
Minimum Humidity 48    
Precipitation  
Precipitation 0.00 in - - ()
Sea Level Pressure  
Sea Level Pressure 30.23 in    
Wind  
Wind Speed 22 mph (NW)    
Max Wind Speed 29 mph    
Max Gust Speed 39 mph    
Visibility 10 miles    
Events      
Averages and records for this station are not official NWS values.
T = Trace of Precipitation, MM = Missing Value Source: NWS Daily Summary

Daily Weather History Graph

Daily Weather History Graph

Search for Another Location

Airport:

Trip Planner

Search our weather history database for the weather conditions in past years. The results will help you decide how hot, cold, wet, or windy it might be!

Date:

Astronomy

Mar. 05, 2013 Rise Set
Actual Time 6:48 AM CST 6:19 PM CST
Civil Twilight 6:22 AM CST 6:46 PM CST
Nautical Twilight 5:51 AM CST 7:17 PM CST
Astronomical Twilight 5:20 AM CST 7:48 PM CST
Moon 1:59 AM CST (3/5) 12:02 PM CST (3/5)
Length of Visible Light 12h 24m
Length of Day
11h 31m
Last Quarter, 40% of the Moon is Illuminated
Mar 5
Last Quarter
Mar 11
New
Mar 19
First Quarter
Mar 27
Full
Apr 2
Last Quarter

Hourly Weather History & Observations

Time (CST) Temp. Windchill Dew Point Humidity Pressure Visibility Wind Dir Wind Speed Gust Speed Precip Events Conditions
1:53 AM 36.0 °F 24.7 °F 30.9 °F 82% 30.04 in 10.0 mi NW 21.9 mph - N/A   Mostly Cloudy
2:08 AM 35.6 °F 23.7 °F 30.2 °F 81% 30.05 in 10.0 mi NW 24.2 mph 31.1 mph N/A   Overcast
2:31 AM 35.6 °F 24.2 °F 26.6 °F 70% 30.06 in 10.0 mi NNW 21.9 mph 27.6 mph N/A   Overcast
2:53 AM 35.1 °F 23.5 °F 24.1 °F 64% 30.07 in 10.0 mi NW 21.9 mph 28.8 mph N/A   Overcast
3:53 AM 33.1 °F 20.6 °F 18.0 °F 54% 30.10 in 10.0 mi NW 23.0 mph 28.8 mph N/A   Overcast
4:53 AM 30.0 °F 16.3 °F 15.1 °F 54% 30.13 in 10.0 mi NW 24.2 mph 29.9 mph N/A   Clear
5:53 AM 28.0 °F 17.0 °F 16.0 °F 61% 30.16 in 10.0 mi WNW 13.8 mph - N/A   Clear
7:53 AM 28.0 °F 14.3 °F 16.0 °F 61% 30.20 in 10.0 mi NW 21.9 mph 31.1 mph N/A   Clear
8:53 AM 30.0 °F 16.3 °F 16.0 °F 56% 30.21 in 10.0 mi NW 24.2 mph 35.7 mph N/A   Clear
9:53 AM 30.9 °F 16.4 °F 18.0 °F 59% 30.22 in 10.0 mi NW 28.8 mph 34.5 mph N/A   Scattered Clouds
10:53 AM 34.0 °F 22.1 °F 19.9 °F 56% 30.23 in 10.0 mi WNW 21.9 mph 29.9 mph N/A   Mostly Cloudy
11:53 AM 35.1 °F 22.2 °F 21.0 °F 57% 30.24 in 10.0 mi NW 27.6 mph 33.4 mph N/A   Overcast
12:53 PM 37.0 °F 24.9 °F 21.0 °F 52% 30.24 in 10.0 mi NW 27.6 mph 36.8 mph N/A   Mostly Cloudy
1:53 PM 37.9 °F 26.6 °F 21.0 °F 51% 30.24 in 10.0 mi NW 25.3 mph 35.7 mph N/A   Mostly Cloudy
2:53 PM 37.0 °F 25.1 °F 19.9 °F 50% 30.25 in 10.0 mi NNW 26.5 mph 39.1 mph N/A   Partly Cloudy
3:53 PM 37.0 °F 25.1 °F 19.9 °F 50% 30.27 in 10.0 mi NW 26.5 mph 38.0 mph N/A   Scattered Clouds
4:53 PM 37.0 °F 24.7 °F 19.0 °F 48% 30.28 in 10.0 mi NW 28.8 mph 34.5 mph N/A   Mostly Cloudy
5:53 PM 35.1 °F 23.3 °F 18.0 °F 50% 30.30 in 10.0 mi NNW 23.0 mph - N/A   Clear
6:53 PM 33.1 °F 22.2 °F 18.0 °F 54% 30.33 in 10.0 mi NNW 17.3 mph 26.5 mph N/A   Clear
7:53 PM 30.9 °F 20.7 °F 18.0 °F 59% 30.34 in 10.0 mi NNW 13.8 mph - N/A   Clear
8:53 PM 30.0 °F 19.5 °F 18.0 °F 61% 30.35 in 10.0 mi NNW 13.8 mph - N/A   Clear
9:53 PM 27.0 °F 18.7 °F 18.0 °F 69% 30.38 in 10.0 mi NW 8.1 mph - N/A   Clear
10:53 PM 28.0 °F 20.0 °F 17.1 °F 63% 30.39 in 10.0 mi NNW 8.1 mph - N/A   Clear
11:53 PM 27.0 °F 18.0 °F 18.0 °F 69% 30.40 in 10.0 mi North 9.2 mph - N/A   Clear